Погода в Измалково

Россия / Липецкая область     52°41′27″N   37°57′50″E
темп.,
°C
ветер,
м/с
пор.,
м/с
влажн.,
%
обл.,
%
осадки,
мм/ч
давл.,
гПа
погр.,
м
27 ноября, сб
сб2700:00−1ю6148226 0.0 1015355
03:00−2ююв51182100 0.0 1014280
06:00−2ююв61487100 0.0 1013394
09:000юв71785100 0.0 1011450
12:00+2ююв81977100 0.0 1009820
15:00+1ююв91994100 0.9 1006819
18:00+2ююв91795100 0.9 1005720
21:00+2ю71595100 1.3 1005504
28 ноября, вс
вс2800:00+3ю61396100 0.0 1005317
03:00+3ю5129897 0.0 1005324
06:00+3ююз41098100 0.0 1005375
09:00+4ююз3899100 0.1 1007238
12:00+5юз379087 0.0 1008399
15:00+6ююз358668 0.0 1009216
18:00+4ю359192 0.0 1010103
21:00+5ю5786100 0.0 1011245
29 ноября, пн
пн2900:00+5ююв3990100 0.0 1010249
03:00+4юв51095100 0.0 1009227
06:00+4юв51197100 0.2 1007274
09:00+6вюв51398100 2.4 1004321
12:00+7ююв81696100 3.3 1000660
15:00+8ююв91795100 4.1 997907
18:00+8юв61397100 1.3 994532
21:00+9ю81594100 2.3 989703
30 ноября, вт
вт3000:00+10ю71395100 2.3 986692
03:00+9ююз5996100 8.3 981454
06:00+5зюз121887100 3.6 9861017
09:00+2зюз121867100 3.6 9911305
12:00+3юз11177090 0.1 9921377
15:00+2юз101872100 0.1 9931538
18:00+1юз9167979 0.1 9911561
21:00+1юз9167289 0.1 9901027
1 декабря, ср
ср100:000юз81389100 0.1 9901016
03:00−1зюз6118692 0.2 992847
06:00−2з71193100 0.9 994860
09:00−2з7117893 1.0 996905
12:00−2з7969100 0.0 9981043
15:00−1з5869100 0.1 9981207
18:00−2зюз4892100 0.1 999589
21:00−2юз389471 0.1 999410